Powrót do katalogu

STARLINK-34125

AktywnyŁącznośćVLEO
NORAD 63901·PAYLOAD·🇺🇸 United States

Wystrzelony May 10, 2025 z Cape Canaveral Space Force Station

Loading…

Następne Przeloty (najbliższe 24 godziny)

TLE

ŚwieżeSource: CelesTrak SupGP

Epoka: Sep 14, 2026, 20:51 UTC

1 63901C 25095M   26257.86923611  .00009912  00000+0  35900-3 0  2575
2 63901  43.0000 187.8424 0001411 262.0625 334.5973 15.27575328    12

Śledź STARLINK-34125 w czasie rzeczywistym z AllMySat

Download on the App Store